Find Starlink 2657

NORAD ID: 48655 Int'l Des: 2021-044 Owner: SPXS Country: US Constellation: starlink operational
LEOCIRCULAR

Live Position

Loading 3D Globe...

About Starlink 2657

Description loading...

Upcoming Passes

Passes for default location (London). Set your location on the main map for personalized predictions.

Altitude History

Loading altitude history...

Two-Line Element Set

1 48655U 21044T 26126.21164301 .00007594 00000-0 25600-3 0 9995
2 48655 53.1586 206.5415 0001387 82.5802 277.5357 15.31730998272637
Epoch: May 6, 2026 • Age: 9 hours

Current Status

Altitude 489.8 km
Velocity 7.62 km/s
Sub-Earth Point -52.67°S, 50.92°E
Launch Date May 26, 2021
Age 4.9 years
Type internet

Technical Details

Classification Payload
Mass 260.00 kg
Dry Mass 248.00 kg
Total Mass 260.00 kg
Length 0.20 m
Diameter 2.80 m
Span 9.00 m
Shape Box + pan
Manufacturer SPXS
Bus Type Starlink
Phase Status In Orbit
Owner/State SPXS/US

Most Searched